"Time","Temp","Dewpoint","Humidity","Pressure","Direction","Speed","Gust","Precip","PrecipRate"
"00:04:56","69.8","68.6","96","30.09","205","0","0","0.00","0.00"
"00:09:57","69.7","68.5","96","30.09","205","0","0","0.00","0.00"
"00:14:56","69.7","68.5","96","30.10","205","0","0","0.00","0.00"
"00:19:56","69.6","68.4","96","30.10","205","0","0","0.00","0.00"
"00:24:58","69.5","68.3","96","30.10","205","0","0","0.00","0.00"
"00:29:59","69.4","68.2","96","30.10","205","0","0","0.00","0.00"
"00:34:59","69.4","68.2","96","30.10","205","0","0","0.00","0.00"
"00:39:56","69.3","68.1","96","30.10","205","0","0","0.00","0.00"
"00:44:56","69.2","68","96","30.10","205","0","0","0.00","0.00"
"00:49:57","69.2","68","96","30.10","205","0","0","0.00","0.00"
"00:54:59","69.1","67.9","96","30.10","205","0","0","0.00","0.00"
"00:59:59","69.1","67.9","96","30.10","205","0","0","0.00","0.00"
"01:04:58","69.1","68.2","96.9","30.10","205","0","0","0.00","0.00"
"01:09:56","69","68.1","97","30.10","205","0","0","0.00","0.00"
"01:14:57","69","67.8","96","30.10","205","0","0","0.00","0.00"
"01:19:59","68.8","67.6","96","30.10","205","0","0","0.00","0.00"
"01:24:56","68.8","67.6","96","30.10","205","0","0","0.00","0.00"
"01:29:57","68.7","67.5","96","30.10","205","0","0","0.00","0.00"
"01:34:59","68.7","67.6","96.6","30.10","205","0","0","0.00","0.00"
"01:39:57","68.7","67.8","97","30.10","205","0","0","0.00","0.00"
"01:44:59","68.7","67.8","97","30.10","205","0","0","0.00","0.00"
"01:49:57","68.7","67.8","97","30.10","205","0","0","0.00","0.00"
"01:54:59","68.8","67.9","97","30.10","205","0","0","0.00","0.00"
"01:59:57","68.8","67.9","97","30.10","315","0","0","0.00","0.00"
"02:04:59","68.8","67.9","97","30.10","315","0","0","0.00","0.00"
"02:09:58","68.8","67.9","97","30.10","315","0","0","0.00","0.00"
"02:14:57","68.8","67.9","97","30.10","315","0","0","0.00","0.00"
"02:19:59","68.8","67.9","97","30.10","315","0","0","0.00","0.00"
"02:24:57","68.8","67.9","97","30.10","315","0","0","0.00","0.00"
"02:29:59","68.8","67.6","96.1","30.10","315","0","0","0.00","0.00"
"02:34:57","68.7","67.5","96","30.10","315","0","0","0.00","0.00"
"02:39:59","68.6","67.4","96","30.10","315","0","0","0.00","0.00"
"02:44:56","68.6","67.4","96","30.11","315","0","0","0.00","0.00"
"02:49:58","68.6","67.6","96.7","30.11","315","0","0","0.00","0.00"
"02:54:56","68.6","67.7","97","30.11","348","0.4","2.3","0.00","0.00"
"02:59:57","68.7","67.8","97","30.11","347","0.6","3.5","0.00","0.00"
"03:04:59","68.8","67.6","96.3","30.11","347","0","0","0.00","0.00"
"03:09:57","68.7","67.5","96","30.11","347","0","0","0.00","0.00"
"03:14:56","68.7","67.5","96","30.11","347","0","0","0.00","0.00"
"03:19:59","68.6","67.4","96","30.10","347","0","0","0.00","0.00"
"03:24:56","68.5","67.3","96","30.10","347","0","0","0.00","0.00"
"03:29:58","68.4","67.2","96","30.10","347","0","0","0.00","0.00"
"03:34:59","68.3","67.1","96","30.10","347","0","0","0.00","0.00"
"03:39:59","68.2","67","96","30.10","347","0","0","0.00","0.00"
"03:44:56","68","66.8","96","30.10","347","0","0","0.00","0.00"
"03:49:57","67.9","66.7","96","30.10","347","0","0","0.00","0.00"
"03:54:56","67.8","66.6","96","30.10","347","0","0","0.00","0.00"
"03:59:57","67.7","66.5","96","30.10","347","0","0","0.00","0.00"
"04:04:59","67.6","66.4","96","30.10","347","0","0","0.00","0.00"
"04:09:57","67.6","66.4","96","30.10","347","0","0","0.00","0.00"
"04:14:59","67.6","66.4","96","30.10","347","0","0","0.00","0.00"
"04:19:57","67.5","66.3","96","30.10","347","0","0","0.00","0.00"
"04:24:58","67.4","66.2","96","30.10","347","0","0","0.00","0.00"
"04:29:59","67.3","66.1","96","30.11","347","0","0","0.00","0.00"
"04:34:57","67.2","66","96","30.11","347","0","0","0.00","0.00"
"04:39:59","67","65.8","96","30.11","347","0","0","0.00","0.00"
"04:44:57","66.9","65.7","96","30.12","347","0","0","0.00","0.00"
"04:49:59","66.8","65.6","96","30.12","347","0","0","0.00","0.00"
"04:54:56","66.7","65.8","97","30.12","347","0","0","0.00","0.00"
"04:59:59","66.7","65.8","97","30.12","347","0","0","0.00","0.00"
"05:04:57","66.8","65.9","97","30.12","347","0","0","0.00","0.00"
"05:09:59","66.7","65.8","97","30.12","347","0","0","0.00","0.00"
"05:14:57","66.7","65.8","97","30.12","347","0","0","0.00","0.00"
"05:19:58","66.6","65.7","97","30.12","347","0","0","0.00","0.00"
"05:24:56","66.6","65.7","97","30.12","347","0","0","0.00","0.00"
"05:29:57","66.5","65.6","97","30.13","347","0","0","0.00","0.00"
"05:34:59","66.4","65.5","97","30.13","347","0","0","0.00","0.00"
"05:39:56","66.4","65.5","97","30.13","347","0","0","0.00","0.00"
"05:44:59","66.4","65.5","97","30.13","347","0","0","0.00","0.00"
"05:49:56","66.3","65.4","97","30.13","347","0","0","0.00","0.00"
"05:54:57","66.2","65.3","97","30.13","347","0","0","0.00","0.00"
"05:59:59","66.2","65.3","97","30.14","347","0","0","0.00","0.00"
"06:04:58","66.2","65.3","97","30.14","347","0","0","0.00","0.00"
"06:09:57","66.1","65.2","97","30.14","347","0","0","0.00","0.00"
"06:14:58","66.1","65.2","97","30.15","347","0","0","0.00","0.00"
"06:19:59","66.1","65.2","97","30.15","347","0","0","0.00","0.00"
"06:24:57","66.1","65.2","97","30.15","347","0","0","0.00","0.00"
"06:29:59","66.1","65.2","97","30.15","347","0","0","0.00","0.00"
"06:34:57","66","65.1","97","30.15","347","0","0","0.00","0.00"
"06:39:59","66","65.1","97","30.15","347","0","0","0.00","0.00"
"06:44:57","66","65.1","97","30.15","347","0","0","0.00","0.00"
"06:49:56","66","65.1","97","30.15","347","0","0","0.00","0.00"
"06:54:57","66","65.1","97","30.15","347","0.3","4","0.00","0.00"
"06:59:56","66","65.1","97","30.16","347","0.3","2","0.00","0.00"
"07:04:58","66.1","65.2","97","30.16","347","0.6","3","0.00","0.00"
"07:09:56","66.1","65.2","97","30.16","347","0.9","3.5","0.00","0.00"
"07:14:59","66.1","65.2","97","30.17","347","0.8","3.5","0.00","0.00"
"07:19:57","66.3","65.4","97","30.17","347","0.9","3.5","0.00","0.00"
"07:24:59","66.3","65.4","97","30.17","347","0.2","3.5","0.00","0.00"
"07:29:57","66.5","65.6","97","30.17","347","0.3","2.3","0.00","0.00"
"07:34:58","66.6","65.7","97","30.17","347","1.1","3.5","0.00","0.00"
"07:39:56","66.9","66","97","30.17","347","0.3","2.3","0.00","0.00"
"07:44:58","67.1","66.2","97","30.18","347","0.4","4","0.00","0.00"
"07:49:59","67.4","66.5","97","30.18","350","0.6","3.5","0.00","0.00"
"07:54:58","67.7","66.7","96.7","30.18","350","0.8","3.5","0.00","0.00"
"07:59:55","68","66.8","96","30.18","348","0.7","3.5","0.00","0.00"
"08:04:57","68.3","66.9","95.3","30.18","347","0.9","4","0.00","0.00"
"08:09:59","68.7","67.2","95","30.18","347","0.3","3.5","0.00","0.00"
"08:14:56","69.1","67.3","94.2","30.18","347","0.4","2.3","0.00","0.00"
"08:19:57","69.4","67.6","93.9","30.18","347","0.3","3","0.00","0.00"
"08:24:59","69.8","67.7","93","30.18","347","0.7","3.5","0.00","0.00"
"08:29:56","70.1","67.8","92.4","30.18","346","0.5","4","0.00","0.00"
"08:34:58","70.3","67.5","91","30.18","345","0.6","3.5","0.00","0.00"
"08:39:56","70.6","67.7","90.7","30.18","345","0.1","1.2","0.00","0.00"
"08:44:58","70.8","67.6","89.8","30.19","308","0.5","2.3","0.00","0.00"
"08:49:56","71.1","67.8","89.4","30.19","248","0.8","2.3","0.00","0.00"
"08:54:58","71.5","68","88.9","30.19","347","0.7","3","0.00","0.00"
"08:59:56","71.8","68.2","88.5","30.19","9","0.6","3","0.00","0.00"
"09:04:58","72","68.1","87.5","30.19","278","0.6","3.5","0.00","0.00"
"09:09:56","72.2","68.2","87.5","30.19","344","0","1.2","0.00","0.00"
"09:14:58","72.3","68","86.5","30.19","322","0","0","0.00","0.00"
"09:19:58","72.5","68.4","86.9","30.19","338","0","3","0.00","0.00"
"09:24:56","72.7","68.5","86.6","30.19","55","0","1.2","0.00","0.00"
"09:25:23","72.8","68.4","86","30.19","49","0","0","0.00","0.00"
"09:34:58","73","68.4","85.4","30.20","346","0.5","2.3","0.00","0.00"
"09:39:57","73.2","68.5","85.3","30.20","328","0.2","3.5","0.00","0.00"
"09:44:56","73.5","68.3","84","30.20","320","0","0","0.00","0.00"
"09:49:58","73.9","68.2","82.5","30.20","331","0","1","0.00","0.00"
"09:54:58","74.3","68","80.7","30.20","17","0.7","3","0.00","0.00"
"09:59:58","74.8","68.1","79.9","30.20","325","1.3","5","0.00","0.00"
"10:04:59","75","68.2","79.4","30.20","332","1.3","4","0.00","0.00"
"10:09:56","75.2","68.3","79.4","30.20","335","1.2","5","0.00","0.00"
"10:14:57","75.4","68.5","79.3","30.21","323","0.7","2.3","0.00","0.00"
"10:19:56","75.5","68.6","79.4","30.21","10","0.6","3.5","0.00","0.00"
"10:24:56","75.6","68.8","79.7","30.21","68","1","4","0.00","0.00"
"10:29:59","75.6","68.8","79.7","30.21","60","0.3","2.3","0.00","0.00"
"10:34:59","75.6","68.6","79","30.21","321","0","0","0.00","0.00"
"10:39:56","75.5","68.3","78.4","30.21","340","0.1","2.3","0.00","0.00"
"10:44:59","75.6","68.4","78.4","30.21","340","0","2.3","0.00","0.00"
"10:49:58","75.8","68.6","78.6","30.21","19","0","0","0.00","0.00"
"10:54:58","75.9","68.5","78.1","30.21","326","0.8","5","0.00","0.00"
"10:59:57","76","68.8","78.5","30.21","337","1.2","3.5","0.00","0.00"
"11:04:59","76.1","68.9","78.5","30.21","343","0.6","4","0.00","0.00"
"11:09:56","76.2","68.4","76.9","30.21","358","1","7","0.00","0.00"
"11:14:58","76.2","68.7","77.5","30.21","353","0.5","6","0.00","0.00"
"11:19:57","76.2","68.5","77.1","30.21","353","1.8","6","0.00","0.00"
"11:24:59","76.1","68.5","77.3","30.21","356","0.2","4.6","0.00","0.00"
"11:29:56","76.1","68.6","77.5","30.21","329","0","1.2","0.00","0.00"
"11:34:58","76.1","68.5","77.4","30.21","355","0","1","0.00","0.00"
"11:39:56","76.3","68.8","77.6","30.21","343","0.1","3","0.00","0.00"
"11:44:58","76.5","68.3","76","30.21","350","0.3","3.5","0.00","0.00"
"11:49:58","76.4","68","75.3","30.21","336","0.1","4","0.00","0.00"
"11:54:56","76.4","68.3","76","30.21","3","0.5","3.5","0.00","0.00"
"11:59:59","76.4","68.1","75.3","30.21","66","0.2","3.5","0.00","0.00"
"12:04:57","76.5","68.1","75.2","30.21","185","0","1.2","0.00","0.00"
"12:09:59","76.5","68.2","75.5","30.21","341","0.4","5","0.00","0.00"
"12:14:57","76.7","68.1","74.9","30.21","102","0","0","0.00","0.00"
"12:19:59","76.7","68.1","74.8","30.21","75","0","0","0.00","0.00"
"12:24:59","76.9","68.2","74.5","30.21","6","0.1","3","0.00","0.00"
"12:29:58","77.1","68.3","74.2","30.21","339","0.1","3.5","0.00","0.00"
"12:34:57","77.2","68.2","73.7","30.21","332","0","1","0.00","0.00"
"12:39:57","77.4","67.9","72.7","30.21","336","0.1","1.2","0.00","0.00"
"12:44:56","77.4","68","72.7","30.21","349","0.2","5","0.00","0.00"
"12:49:59","77.4","67.7","72.1","30.20","332","1","6","0.00","0.00"
"12:54:57","77.4","67.7","72.1","30.20","351","0.3","5","0.00","0.00"
"12:59:56","77.3","67.6","72","30.20","354","0.8","6","0.00","0.00"
"13:04:58","77.1","67.4","72.1","30.20","332","0.1","3","0.00","0.00"
"13:09:56","77","67.3","72","30.20","343","0.2","3","0.00","0.00"
"13:14:59","76.9","67.6","73","30.20","322","0.1","3.5","0.00","0.00"
"13:19:56","76.9","67.8","73.5","30.20","19","0","0","0.00","0.00"
"13:24:58","77","67.4","72.4","30.20","330","0.6","4","0.00","0.00"
"13:29:57","77","67.3","71.9","30.20","331","0.1","2.3","0.00","0.00"
"13:34:59","77","67.4","72.2","30.20","58","0","1","0.00","0.00"
"13:39:56","77","67.5","72.4","30.20","355","0","1","0.00","0.00"
"13:44:58","77","67.5","72.4","30.20","316","0.4","6","0.00","0.00"
"13:49:57","76.9","67.5","72.7","30.19","343","0.5","5","0.00","0.00"
"13:54:59","76.9","68","74","30.19","338","2","6","0.00","0.00"
"13:59:58","76.8","67.9","74","30.19","338","0.7","4","0.00","0.00"
"14:04:56","76.8","67.9","74.2","30.19","333","0.2","3.5","0.00","0.00"
"14:09:58","76.8","67.9","74.2","30.19","337","0.2","3.5","0.00","0.00"
"14:14:56","76.8","67.9","73.9","30.19","343","0.4","3","0.00","0.00"
"14:19:58","76.9","68.3","74.7","30.18","348","0","1.2","0.00","0.00"
"14:24:56","77.2","68.4","74.3","30.18","341","0","0","0.00","0.00"
"14:29:58","77.5","68.4","73.6","30.18","335","2","6","0.00","0.00"
"14:34:57","77.7","68.4","73.2","30.18","342","1.7","5","0.00","0.00"
"14:39:56","77.9","68.2","72.1","30.18","335","2.2","5","0.00","0.00"
"14:44:58","78","68.4","72.5","30.18","333","0.8","4","0.00","0.00"
"14:49:56","78.1","68.5","72.4","30.18","324","1.3","5","0.00","0.00"
"14:54:57","78.1","68.1","71.4","30.18","335","1.9","6","0.00","0.00"
"14:59:58","78.2","68.7","72.9","30.18","342","1.9","5","0.00","0.00"
"15:04:59","78.3","68.8","72.5","30.17","354","2","5","0.00","0.00"
"15:09:56","78.4","68.6","72","30.17","344","1.2","4","0.00","0.00"
"15:14:58","78.7","68.8","72","30.17","328","1.4","3.5","0.00","0.00"
"15:19:55","78.7","68.2","70.3","30.17","9","1.3","5","0.00","0.00"
"15:24:59","78.9","69.4","72.6","30.17","349","1","4","0.00","0.00"
"15:29:56","79.4","69","70.4","30.17","356","0.1","2.3","0.00","0.00"
"15:34:57","79.4","68.3","68.8","30.17","332","0.9","4","0.00","0.00"
"15:39:56","79","68","69.1","30.17","325","0.2","3.5","0.00","0.00"
"15:44:56","79.1","69","71.2","30.17","343","0.1","2.3","0.00","0.00"
"15:49:57","79.8","69.4","70.8","30.16","5","0.1","5","0.00","0.00"
"15:54:59","80.3","69.2","69.1","30.16","342","0.2","4.6","0.00","0.00"
"15:59:56","80.4","69.3","68.9","30.16","300","0","2","0.00","0.00"
"16:04:56","80.1","69","68.9","30.15","63","0","1.2","0.00","0.00"
"16:09:59","79.4","68.1","68.5","30.15","335","0.1","2.3","0.00","0.00"
"16:14:57","79","68.3","69.7","30.15","347","0","4","0.00","0.00"
"16:19:58","79.3","68.3","69.2","30.15","335","0.7","5","0.00","0.00"
"16:24:56","79.6","68.5","69","30.15","329","0","2","0.00","0.00"
"16:29:58","79.9","69.1","69.8","30.15","302","0.2","3","0.00","0.00"
"16:34:59","80","68.4","67.8","30.15","318","1.3","4","0.00","0.00"
"16:39:57","79.9","68.6","68.4","30.15","323","1.2","4","0.00","0.00"
"16:44:59","80.1","68.5","67.7","30.15","336","1.3","4","0.00","0.00"
"16:49:57","80.2","68.3","67.2","30.15","335","1.4","3.5","0.00","0.00"
"16:54:59","80.3","68.6","67.7","30.15","335","0.5","2.3","0.00","0.00"
"16:59:57","80.5","68","65.9","30.15","343","0.7","4","0.00","0.00"
"17:04:58","80.2","67.8","65.9","30.14","11","1","4","0.00","0.00"
"17:09:56","79.8","68","67.2","30.14","338","0.9","3.5","0.00","0.00"
"17:14:57","80","67.7","66.2","30.14","324","1.2","3.5","0.00","0.00"
"17:19:59","80.1","67.6","65.7","30.14","331","1.1","5","0.00","0.00"
"17:24:56","80.3","67.7","65.6","30.14","333","1.3","4.6","0.00","0.00"
"17:29:58","80.1","66.9","64.2","30.14","351","1.5","3.5","0.00","0.00"
"17:34:58","79.8","66.7","64.4","30.14","336","1.5","3.5","0.00","0.00"
"17:39:56","79.8","67.2","65.4","30.14","337","2","4","0.00","0.00"
"17:44:58","80","66.9","64.5","30.14","327","1.2","4","0.00","0.00"
"17:49:58","79.8","66.6","64.2","30.14","339","2.3","5","0.00","0.00"
"17:54:58","79.5","66.4","64.3","30.14","338","1.5","3.5","0.00","0.00"
"17:59:58","79","65.8","64.1","30.15","338","1.3","3.5","0.00","0.00"
"18:04:56","78.4","66.1","66.1","30.15","338","0","3.5","0.00","0.00"
"18:09:58","78","66.4","67.6","30.15","338","0","0","0.00","0.00"
"18:14:57","77.7","66.3","68","30.15","337","0","0","0.00","0.00"
"18:19:58","77.2","66","68.3","30.15","340","0.4","3.5","0.00","0.00"
"18:24:59","76.9","66.1","69.3","30.15","335","1.9","4","0.00","0.00"
"18:29:57","76.6","66.1","70","30.15","333","1.4","3.5","0.00","0.00"
"18:34:58","76.3","66.1","70.6","30.15","333","1","3.5","0.00","0.00"
"18:39:56","76.1","66","71","30.15","333","1.2","3.5","0.00","0.00"
"18:44:58","75.8","65.8","71.2","30.15","333","0.7","2.3","0.00","0.00"
"18:49:56","75.5","65.9","72.1","30.15","333","0","1.2","0.00","0.00"
"18:54:59","75.2","66.1","73.7","30.15","333","0.2","2","0.00","0.00"
"18:59:57","74.6","66.5","75.8","30.15","333","0","1","0.00","0.00"
"19:04:59","74","66.4","77.3","30.15","333","0.2","1.2","0.00","0.00"
"19:09:57","73.3","66.3","78.9","30.15","333","0","0","0.00","0.00"
"19:14:56","72.6","66.2","80.4","30.15","333","0","0","0.00","0.00"
"19:19:58","72","66.3","82.2","30.15","333","0","0","0.00","0.00"
"19:24:57","71.6","66.3","83.5","30.15","333","0","0","0.00","0.00"
"19:29:58","71.3","66.2","84.2","30.15","333","0","0","0.00","0.00"
"19:34:58","70.9","66.2","85","30.15","333","0","0","0.00","0.00"
"19:39:57","70.5","65.8","85","30.15","333","0","0","0.00","0.00"
"19:44:56","70","65.5","85.5","30.16","333","0","0","0.00","0.00"
"19:49:58","69.6","65.6","86.9","30.16","333","0","0","0.00","0.00"
"19:54:56","69.3","65.4","87.3","30.16","333","0","0","0.00","0.00"
"19:59:58","69","65.2","87.5","30.17","333","0","0","0.00","0.00"
"20:04:56","68.8","65.3","88.5","30.17","333","0","0","0.00","0.00"
"20:09:58","68.6","65.2","89","30.17","333","0","0","0.00","0.00"
"20:14:56","68.3","65.1","89.5","30.17","333","0","0","0.00","0.00"
"20:19:58","68.1","65.1","90","30.17","333","0","0","0.00","0.00"
"20:24:56","67.9","65.1","90.7","30.17","333","0","0","0.00","0.00"
"20:29:57","67.8","65.3","91.5","30.17","333","0","0","0.00","0.00"
"20:34:59","67.7","65.3","92","30.17","333","0","0","0.00","0.00"
"20:39:57","67.6","65.2","91.9","30.17","333","0","0","0.00","0.00"
"20:44:55","67.4","64.7","91","30.18","333","0","0","0.00","0.00"
"20:49:59","67.1","64.4","91","30.18","333","0","0","0.00","0.00"
"20:54:57","66.8","64.4","91.8","30.18","333","0","0","0.00","0.00"
"20:59:57","66.6","64.4","92.4","30.19","333","0","0","0.00","0.00"
"21:04:58","66.5","64.4","93","30.19","333","0","0","0.00","0.00"
"21:09:56","66.4","64.4","93.1","30.19","333","0","0","0.00","0.00"
"21:14:58","66.4","64.5","93.7","30.19","333","0","0","0.00","0.00"
"21:19:56","66.3","64.3","93.6","30.19","333","0","0","0.00","0.00"
"21:24:57","66.1","64.3","94","30.19","333","0","0","0.00","0.00"
"21:29:59","66","64.2","94","30.19","333","0","0","0.00","0.00"
"21:34:56","65.8","64","94","30.19","333","0","0","0.00","0.00"
"21:39:58","65.6","63.8","94","30.19","333","0","0","0.00","0.00"
"21:44:56","65.5","63.7","94","30.20","333","0","0","0.00","0.00"
"21:49:58","65.3","63.5","94","30.20","333","0","0","0.00","0.00"
"21:54:56","65","63.2","94","30.20","333","0","0","0.00","0.00"
"21:59:57","64.9","63.1","94","30.20","333","0","0","0.00","0.00"
"22:04:59","64.8","63","94","30.20","333","0","0","0.00","0.00"
"22:09:56","64.7","62.9","94","30.20","333","0","0","0.00","0.00"
"22:14:58","64.6","63.1","95","30.20","333","0","0","0.00","0.00"
"22:19:56","64.6","63.1","95","30.20","333","0","0","0.00","0.00"
"22:24:58","64.5","63","95","30.20","333","0","0","0.00","0.00"
"22:29:59","64.4","62.9","95","30.21","333","0","0","0.00","0.00"
"22:34:57","64.3","62.8","95","30.21","333","0","0","0.00","0.00"
"22:39:58","64.1","62.6","95","30.21","333","0","0","0.00","0.00"
"22:44:56","64","62.5","95","30.22","333","0","0","0.00","0.00"
"22:49:57","63.9","62.4","95","30.22","333","0","0","0.00","0.00"
"22:54:59","63.8","62.4","95.3","30.22","333","0","0","0.00","0.00"
"22:59:56","63.8","62.6","96","30.22","333","0","0","0.00","0.00"
"23:04:58","63.8","62.6","96","30.22","333","0","0","0.00","0.00"
"23:09:56","63.8","62.6","96","30.22","333","0","0","0.00","0.00"
"23:14:58","63.7","62.5","96","30.22","333","0","0","0.00","0.00"
"23:19:56","63.7","62.5","96","30.22","333","0","0","0.00","0.00"
"23:24:57","63.6","62.3","95.9","30.22","333","0","0","0.00","0.00"
"23:29:59","63.4","61.9","95","30.22","333","0","0","0.00","0.00"
"23:34:57","63.3","62","95.7","30.22","333","0","0","0.00","0.00"
"23:39:59","63.2","62","96","30.22","333","0","0","0.00","0.00"
"23:44:56","63.2","62","96","30.23","333","0","0","0.00","0.00"
"23:49:58","63.1","61.9","96","30.23","333","0","0","0.00","0.00"
"23:54:59","63","61.8","96","30.23","333","0","0","0.00","0.00"
"23:59:57","62.9","61.7","96","30.23","333","0","0","0.00","0.00"
